Meteo Giornale » Osservazioni meteo Stati Uniti (USA) » Trenton Mercer

ore: 12:53 - Osservazioni Meteo Trenton Mercer
Lat. 40° 16' N Lon. 74° 48' W Alt. 64 metri s.l.m.

nuvoloso

27 °C

Nuvoloso

Temp. 24 Ore

22 °C

27 °C

Nord

5.5 Km/h

Dew point 23 °C

Umidità 78 %

Visibilità  10 Km

Il sole sorge alle ore 06:26

Il sole tramonta alle ore 19:31

Data e Ora Cielo e Fenomeni T °C DP °C Um. % Pres. hPa Vis. km Vento km/h
Oggi h: 12:53 nuvoloso Nuvoloso 27 23 78 1015 10 N 5.5
Oggi h: 11:53 molto_nuvoloso Molto Nuvoloso 27 23 78 1015 10 O/SO 7.4
Oggi h: 10:53 molto_nuvoloso Molto Nuvoloso 26 23 83 1016 10 SO 9.3
Oggi h: 09:53 nuvoloso Nuvoloso 26 23 83 1015 10 N 5.5
Oggi h: 08:53 foschia Foschia 24 23 94 1016 6 N 7.4
Oggi h: 07:53 foschia Foschia 22 22 100 1016 6 N 5.5
Oggi h: 06:53 foschia Foschia 22 21 94 1016 6 N 0
Oggi h: 06:12 foschia Foschia 22 22 100 1016 10 N 0
Oggi h: 05:53 foschia Foschia 22 21 94 1016 10 N 0
Oggi h: 05:35 coperto Coperto 22 21 94 1016 11 N 0
Oggi h: 04:53 coperto Coperto 22 21 94 1016 14 N 0
Oggi h: 03:53 coperto Coperto 22 21 94 1016 10 N 0
Oggi h: 02:53 coperto Coperto 22 21 94 1016 10 N 0
Oggi h: 02:02 coperto Coperto 22 21 94 1017 10 N 0
Oggi h: 01:53 coperto Coperto 22 21 94 1017 10 N 0
Oggi h: 00:53 coperto Coperto 22 20 88 1017 10 S 9.3
Ieri h: 23:53 coperto Coperto 22 20 88 1018 10 S 9.3
Ieri h: 22:53 molto_nuvoloso Molto Nuvoloso 22 20 88 1018 10 S 11.1
Ieri h: 21:53 nuvoloso Nuvoloso 22 21 94 1018 10 S 7.4
Ieri h: 20:53 molto_nuvoloso Molto Nuvoloso 23 21 88 1018 10 S/SE 11.1
Ieri h: 19:53 poco_nuvoloso Poco Nuvoloso 23 19 78 1018 10 N 0
Ieri h: 18:53 molto_nuvoloso Molto Nuvoloso 24 19 73 1018 10 N 0
Ieri h: 17:53 coperto Coperto 25 19 69 1018 10 N 0
Ieri h: 16:53 molto_nuvoloso Molto Nuvoloso 25 19 69 1018 10 N 0
Ieri h: 15:53 coperto Coperto 25 18 65 1019 10 N 0
Ieri h: 14:53 coperto Coperto 24 18 69 1019 10 N 5.5
Ieri h: 14:36 coperto Coperto 25 18 65 1019 10 N 5.5
Ieri h: 14:14 molto_nuvoloso Molto Nuvoloso 24 18 69 1019 10 N 5.5
Ieri h: 14:00 molto_nuvoloso Molto Nuvoloso 25 19 69 1020 10 E/NE 7.4
Ieri h: 13:53 coperto Coperto 25 19 69 1020 10 E/NE 7.4